DECAYED

ELECTRON KICK STAGE R/B, 60353 (Decayed)

Orbit data source: Space-Track

ELECTRON KICK STAGE R/B, 60353 was space debris in LEO originally from a launch on Fri, 02 Aug 2024 UTC launched from the Rocket Lab Launch Complex (RLLC). Debris objects in space refer to the collection of defunct objects orbiting the Earth. Examples of debris include non-operational satellites, rocket bodies, and fragments generated from explosions, collisions, or faulty payload assembly.

Not visible in the next 10 days
Identifier
60353, 2024-137B
Orbit
Decayed
Last TLE update
1 month ago
Origin
Manufacturer
Rocket Lab
Mission
Decayed spacecraft
Bus & Motor
KICK STAGE, CURIE
Mass
~50 kg wet, ~50 kg dry
Launch date (UTC)
2024-08-02 (9 months ago)
Launch vehicle
Unknown
Launch site
Rocket Lab Launch Complex (RLLC)
Object type
Payload
Rocket body
Debris
Shape & HBR
Unknown
Radar Cross Section
Medium (>0.1 m² and <1 m²)

Expand to show TLE details & history

TLE from 1 month ago
0 ELECTRON KICK STAGE R/B
1 60353U 24137B   25092.47318442  .05430079  90275-5  19904-2 0  9996
2 60353  42.9890 164.2835 0006545  50.9055 309.2413 16.23634504 37639
Epoch: 2025-04-02T11:21Z
Definitive object data (Epoch: 2025-04-02T11:21:23.133Z)
Latitude
-0.00004°
Longitude
162.8772°
Altitude
206.742 km
Speed
7.786 km/s
True Right ascension
10h 57m 08s
True Declination
0° 00' 00"
Sunlit
Object was in full shadow at TLE epoch
Visualization observer readout
Visualization observer readout
Orbital elements
Apogee altitude
216.043 km
Perigee altitude
207.417 km
Semi-major axis
6,589.867 km
Eccentricity
0.0006545
Inclination
42.989°
RAAN
164.2835°
Arg. of periapsis
50.9055°
True anomaly
309.18318°
Mean anomaly
309.2413°
Eccentric anomaly
309.21224°
Mean motion
4.05722 °/min
BSTAR
0.0019904
Orbital period
88.73 mins
Loading maneuver chart data...
Loading SW <> Apogee altitude chart data...
Loading historical data...
Loading historical data...
Loading historical data...
Loading historical data...
Loading historical data...
Loading historical data...
Loading historical data...
Other satellites on launch #137 in the year 2024 (2024-08-02 UTC)

ELECTRON KICK STAGE R/B Visibility forecast

Observer location: undefined°, undefined°

This satellite is decayed
Span
Click to sort rows by Start time (UTC) header in descending order
Start Az.
Max El. time (UTC)
Max El. Az.
Max El.
End time (UTC)
End Az.
|